AirNav   Air Wisconsin pilot careers
 
 1056 users online  

L47 Olla Airport
Olla, Louisiana, USA

GOING TO OLLA?


FAA INFORMATION EFFECTIVE 16 AUGUST 2018

Location

FAA Identifier: L47
Lat/Long: 31-53-45.9500N / 092-13-04.3800W
31-53.765833N / 092-13.073000W
31.8960972 / -92.2178833
(estimated)
Elevation: 130 ft. / 40 m (estimated)
Variation: 04E (1985)
From city: 1 mile E of OLLA, LA
Time zone: UTC -5 (UTC -6 during Standard Time)
Zip code: 71465

Airport Operations

Airport use: Open to the public
Control tower: no
ARTCC: HOUSTON CENTER
FSS: DE RIDDER FLIGHT SERVICE STATION
NOTAMs facility: DRI (NOTAM-D service available)
Attendance: UNATNDD
Wind indicator: no
Segmented circle: no
Beacon: white-green (lighted land airport)
ROTG BCN OTS INDEFLY. Operates sunset to sunrise.

Airport Communications

CTAF: 122.9

Nearby radio navigation aids

VOR radial/distance  VOR name  Freq  Var
SWBr099/23.8SAWMILL VOR/DME113.7502E
MLUr191/38.4MONROE VORTAC117.2003E

Airport Services

Airframe service: NONE
Powerplant service: NONE
Bottled oxygen: NONE
Bulk oxygen: NONE

Runway Information

Runway 3/21

Dimensions: 3010 x 75 ft. / 917 x 23 m
Surface: asphalt, in poor condition
RY SFC CRACKED; DIP IN RY NEAR RY 03 END. 1-2 FT GRASS GROWING ON RY.
Weight bearing capacity: 
Single wheel: 9.0
Runway edge lights: NO RUNWAY EDGE LIGHTING.
Runway edge markings: DSPLCD THLD MARKINGS NON-STANDARD; NO CHEVRONS, ARROWS OR THLD BAR.
RUNWAY 3  RUNWAY 21
Latitude: 31-53.553167N31-53.978500N
Longitude: 092-13.223167W092-12.922833W
Gradient: 0.1%0.1%
Traffic pattern: leftleft
Displaced threshold: no190 ft.
Markings: basic, in poor conditionbasic, in poor condition
Runway end identifier lights: nono
Obstructions: 36 ft. trees, 534 ft. from runway, 90 ft. left of centerline, 9:1 slope to clear15 ft. road, marked, 215 ft. from runway, 1:1 slope to clear
APCH SLOPE TO DSPLD THLD 11:1. 76 FT TREES 303 FT LEFT OF CNTLN.

Airport Ownership and Management from official FAA records

Ownership: Publicly-owned
Owner: OLLA URANIA TULLOS STANDARD
PO BOX 223
OLLA, LA 71465
Phone 318-312-1106
ECONOMIC DEVELOPMENT DISTRICT
Manager: KARY RANDALL
PO BOX 3181
RUSTON, LA 71272
Phone 318-257-5478

Airport Operational Statistics

Aircraft based on the field: 1
Single engine airplanes: 1
    
Aircraft operations: avg 71/week *
68% local general aviation
32% transient general aviation
* for 12-month period ending 28 February 2018

Additional Remarks

APRON COND POOR.
PONDING ON RY & TWYS DURG HEAVY RAINS.
RY 03/21 75 FT TREES ALONG BOTH SIDES OF RY PENETRATE TRANSITION SLOPE.
ARPT CLSD NIGHTS.
RY 03 HAS A DIP 450 FT FM APCH END OF RY.
THIS AIRPORT IS OPEN FOR DAY VFR OPERATIONS ONLY.

Instrument Procedures

There are no published instrument procedures at L47.

Some nearby airports with instrument procedures:

0R5 - David G Joyce Airport (23 nm W)
KESF - Esler Regional Airport (30 nm S)
F88 - Jonesboro Airport (32 nm NW)
KMLU - Monroe Regional Airport (38 nm N)
KAEX - Alexandria International Airport (38 nm SW)
 
Loc | Ops | Rwys | IFR | FBO | Links
Com | Nav | Svcs | Stats | Notes


 
Area around L47 (Olla Airport)
 
Road maps at: MapQuest Bing Google
 
Aerial photo
WARNING: Photo may not be current or correct
Aerial photo of L47 (Olla Airport)
Photo by Bob Burns
Photo taken 02-Jan-2011
looking northwest.

Do you have a better or more recent aerial photo of Olla Airport that you would like to share? If so, please send us your photo.

 
Sectional chart

 
Airport distance calculator
Flying to Olla Airport? Find the distance to fly.

From to L47

Sunrise and sunset
Times for 20-Aug-2018
 Local
(UTC-5)
 Zulu
(UTC)
Morning civil twilight06:1211:12
Sunrise06:3811:38
Sunset19:4700:47
Evening civil twilight20:1201:12

Current date and time
Zulu (UTC)  21-Aug-2018 00:08:57
Local (UTC-5)  20-Aug-2018 19:08:57
 
METAR
KESF 
30nm S 
202353Z AUTO 19011KT 10SM FEW060 SCT075 32/23 A2992 RMK AO2 SLP128 T03220228 10361 20322 55000
KAEX 
38nm SW 
202353Z 19007KT 10SM CLR 33/22 A2990 RMK AO2 SLP125 6//// T03280217 10367 20328 56002 PNO
KMLU 
38nm N 
202353Z 35018G23KT 10SM TS OVC060 28/21 A2993 RMK AO2 LTG DSNT W-NE TSB47 PRESRR SLP133 T02830211 10361 20283 53016
K0R4 
41nm SE 
202355Z AUTO 16008G16KT 10SM CLR 30/24 A2992 RMK AO2 T03010244 10342 20301
KRSN 
42nm NW 
202355Z AUTO 01007KT 10SM OVC060 30/21 A2991 RMK AO2 T03030206 10356 20303 TSNO
KIER 
46nm W 
202355Z AUTO 21005KT 10SM CLR 35/22 A2989 RMK AO2 T03450220 10366 20331
TAF
KAEX 
38nm SW 
201909Z 2019/2118 22010G17KT P6SM VCTS SCT025CB BKN050 FM210300 VRB04KT P6SM SCT250 FM211400 28007KT P6SM SKC
KMLU 
38nm N 
210000Z 2100/2124 20012KT P6SM VCTS BKN060CB TEMPO 2100/2103 35020G50KT 1SM +TSRA BKN020CB FM210300 25004KT P6SM SCT050 FM211400 28009KT P6SM SKC
NOTAMs
Click for the latest NOTAMs
NOTAMs are issued by the DoD/FAA and will open in a separate window not controlled by AirNav.

 

 
 

Would you like to see your business listed on this page?

 If your business provides an interesting product or service to pilots, flight crews, aircraft, or users of the Olla Airport, you should consider listing it here.  To start the listing process, click on the button below
 
Add a business
 

Other Pages about Olla Airport

Update a link
 
Copyright © AirNav, LLC. All rights reserved. Privacy Policy  Contact